GW5556 Weather Reports


time (UTC)temp
F
wind
direction
speed
knots
gust
knots
rain 1hr
in
rain 24hr
in
rain mn
in
humidity
%
barometer
mb
20260510183016 80 281 5.2 9.6 0.00 0.00 0.00 21 1013.4
20260510181523 80 161 4.3 9.6 0.00 0.00 0.00 23 1013.4
20260510180012 79 28 1.7 6.1 0.00 0.00 0.00 22 1013.5
20260510174524 79 175 2.6 9.6 0.00 0.00 0.00 21 1013.6
20260510173005 79 186 2.6 8.7 0.00 0.00 0.00 19 1013.7
20260510171518 79 173 4.3 7.8 0.00 0.00 0.00 20 1013.8
20260510170009 78 222 2.6 7.8 0.00 0.00 0.00 19 1014.1
20260510164504 78 306 2.6 13.0 0.00 0.00 0.00 21 1014.2
20260510163017 78 314 1.7 9.6 0.00 0.00 0.00 22 1014.3
20260510161510 77 242 2.6 7.8 0.00 0.00 0.00 23 1014.3
20260510160017 77 196 0.9 9.6 0.00 0.00 0.00 25 1014.3
20260510154508 77 183 4.3 7.0 0.00 0.00 0.00 22 1014.4
20260510153009 76 233 1.7 9.6 0.00 0.00 0.00 25 1014.6
20260510151512 75 313 1.7 7.0 0.00 0.00 0.00 28 1014.7
20260510150015 75 335 3.5 9.6 0.00 0.00 0.00 28 1014.7
20260510144519 74 185 0.9 4.3 0.00 0.00 0.00 39 1014.6
20260510143014 73 72 1.7 5.2 0.00 0.00 0.00 39 1014.7
20260510141522 72 136 2.6 4.3 0.00 0.00 0.00 44 1014.7
20260510140016 70 146 0.0 5.2 0.00 0.00 0.00 49 1014.8
20260510134508 69 169 0.0 3.5 0.00 0.00 0.00 49 1014.9
20260510133018 68 167 1.7 3.5 0.00 0.00 0.00 51 1014.8
20260510131514 66 167 0.0 3.5 0.00 0.00 0.00 56 1014.7
20260510130012 63 175 0.9 3.5 0.00 0.00 0.00 61 1014.7
20260510124516 61 209 0.0 2.6 0.00 0.00 0.00 67 1014.5
20260510123020 58 311 0.9 5.2 0.00 0.00 0.00 68 1014.4
20260510121518 55 134 0.0 4.3 0.00 0.00 0.00 75 1014.2
20260510120020 53 218 0.9 3.5 0.00 0.00 0.00 75 1013.9
20260510114515 51 300 0.9 3.5 0.00 0.00 0.00 76 1013.8
20260510113014 50 293 0.0 4.3 0.00 0.00 0.00 76 1013.5
20260510111525 48 300 0.0 1.7 0.00 0.00 0.00 74 1013.2
20260510110016 47 300 0.9 3.5 0.00 0.00 0.00 73 1013.0
20260510104532 48 268 0.0 3.5 0.00 0.00 0.00 73 1012.9
20260510103019 48 303 0.0 3.5 0.00 0.00 0.00 73 1012.7
20260510101516 48 311 0.0 2.6 0.00 0.00 0.00 72 1012.4
20260510100024 47 302 0.0 1.7 0.00 0.00 0.00 71 1012.1
20260510094538 49 302 0.0 0.9 0.00 0.00 0.00 69 1012.1
20260510093021 50 304 0.0 4.3 0.00 0.00 0.00 71 1012.1
20260510091519 50 301 0.0 3.5 0.00 0.00 0.00 70 1011.9
20260510090016 50 298 0.0 2.6 0.00 0.00 0.00 68 1011.7
20260510084521 51 298 1.7 3.5 0.00 0.00 0.00 73 1011.5
20260510083010 50 302 0.0 1.7 0.00 0.00 0.00 70 1011.3
20260510081528 51 302 0.0 1.7 0.00 0.00 0.00 72 1011.1
20260510080006 51 304 0.0 2.6 0.00 0.00 0.00 67 1011.0
20260510074505 52 304 0.0 0.0 0.00 0.00 0.00 69 1010.9
20260510073003 52 304 0.0 0.0 0.00 0.00 0.00 69 1010.8
20260510071509 52 304 0.0 1.7 0.00 0.00 0.00 67 1010.8
20260510070011 54 314 0.0 5.2 0.00 0.00 0.00 69 1010.9
20260510064507 54 188 0.0 1.7 0.00 0.00 0.00 68 1011.0
20260510063016 53 188 0.0 0.9 0.00 0.00 0.00 68 1011.1
20260510061506 53 188 0.0 0.0 0.00 0.00 0.00 65 1011.1
20260510060006 55 188 0.0 2.6 0.00 0.00 0.00 67 1011.2
20260510054518 55 188 0.0 0.0 0.00 0.00 0.00 66 1011.2
20260510053016 55 188 0.0 2.6 0.00 0.00 0.00 64 1011.3
20260510051529 56 188 0.9 2.6 0.00 0.00 0.00 66 1011.4
20260510050018 56 188 0.0 0.0 0.00 0.00 0.00 65 1011.4
20260510044519 56 188 0.0 0.0 0.00 0.00 0.00 64 1011.3
20260510043023 57 188 0.0 0.9 0.00 0.00 0.00 63 1011.4
20260510041520 59 188 0.0 0.0 0.00 0.00 0.00 64 1011.4
20260510040021 60 188 0.0 1.7 0.00 0.00 0.00 66 1011.4
20260510034520 59 188 0.0 1.7 0.00 0.00 0.00 64 1011.5
20260510033023 59 188 0.9 2.6 0.00 0.00 0.00 66 1011.3
20260510031524 59 188 0.0 1.7 0.00 0.00 0.00 65 1011.3
20260510030026 59 188 0.0 2.6 0.00 0.00 0.00 66 1011.4
20260510024522 59 188 0.0 1.7 0.00 0.00 0.00 66 1011.2
20260510023005 60 188 0.0 0.9 0.00 0.00 0.00 65 1011.1
20260510021511 61 188 0.0 1.7 0.00 0.00 0.00 65 1011.1
20260510020003 61 188 0.0 1.7 0.00 0.00 0.00 65 1010.8
20260510014503 62 188 0.0 0.0 0.00 0.00 0.00 63 1010.6
20260510013010 62 188 0.0 0.0 0.00 0.00 0.00 62 1010.2
20260510011508 63 188 0.0 0.0 0.00 0.00 0.00 61 1010.0
20260510010005 64 188 0.0 0.9 0.00 0.00 0.00 60 1009.7
20260510004503 65 188 0.0 0.9 0.00 0.00 0.00 58 1009.4
20260510003003 66 188 0.0 1.7 0.00 0.00 0.00 56 1009.2
20260510001509 68 181 0.9 2.6 0.00 0.00 0.00 54 1009.1
20260510000020 69 180 0.0 0.0 0.00 0.00 0.00 52 1009.0
20260509234507 70 174 0.0 1.7 0.00 0.00 0.00 50 1009.0
20260509233007 71 174 0.9 3.5 0.00 0.00 0.00 48 1008.9
20260509231507 72 212 0.9 6.1 0.00 0.00 0.00 45 1008.6
20260509230010 73 213 0.9 5.2 0.00 0.00 0.00 43 1008.3
20260509224517 74 173 1.7 3.5 0.00 0.00 0.00 41 1008.3
20260509223005 74 223 0.9 3.5 0.00 0.00 0.00 40 1008.2
20260509221509 74 236 0.9 3.5 0.00 0.00 0.00 41 1008.3
20260509220008 73 207 0.9 4.3 0.00 0.00 0.00 42 1008.4
20260509214506 73 261 0.9 1.7 0.00 0.00 0.00 42 1008.2
20260509213016 73 233 0.9 2.6 0.00 0.00 0.00 41 1008.1
20260509211509 73 188 1.7 6.1 0.00 0.00 0.00 45 1008.1
20260509210011 72 215 0.9 5.2 0.00 0.00 0.00 42 1007.8
20260509204515 72 290 0.0 2.6 0.00 0.00 0.00 43 1007.9
20260509203008 72 355 2.6 4.3 0.00 0.00 0.00 41 1007.9
20260509201508 72 156 0.9 8.7 0.00 0.00 0.00 42 1007.8
20260509200006 72 190 2.6 7.0 0.00 0.00 0.00 40 1008.1
20260509194511 72 240 4.3 8.7 0.00 0.00 0.00 38 1008.2
20260509193018 73 248 5.2 9.6 0.00 0.00 0.00 39 1008.2
20260509191516 73 166 6.1 11.3 0.00 0.00 0.00 40 1008.2
20260509190014 73 189 4.3 9.6 0.00 0.00 0.00 41 1008.1
20260509184515 72 165 4.3 9.6 0.00 0.00 0.00 41 1008.3